Regional Weather Roundup
Issued by NWS

Home | Current Version | Previous Version | Graphics & Text | Print | Product List | Glossary On
Versions: 1 2 3 4 5 6 7 8 9 10 11 12 13 14 15 16 17 18 19 20 21 22 23 24 25 26 27 28 29 30 31 32 33 34 35 36 37 38 39 40 41 42 43 44 45 46 47 48 49 50
000
ASUS45 KBOU 260107
RWRCO

WEATHER ROUNDUP FOR COLORADO
NATIONAL WEATHER SERVICE DENVER/BOULDER CO
700 PM MDT TUE APR 25 2017

NOTE: "FAIR" INDICATES FEW OR NO CLOUDS BELOW 12000 FEET WITH NO
SIGNIFICANT WEATHER AND/OR OBSTRUCTIONS TO VISIBILITY.

COZ001>005-013-030-031-260200-
...NORTHWEST COLORADO...

CITY           SKY/WX    TMP DP  RH WIND       PRES   REMARKS
CRAIG          CLOUDY    41  34  76 SW12      29.78R
HAYDEN         CLOUDY    39  30  70 W5        29.77S
MEEKER         PTSUNNY   37  35  92 CALM      29.80S
MOUNT WERNER   NOT AVBL
STEAMBOAT SPGS CLOUDY    35  32  92 S3        29.78R
WALDEN           N/A     34  25  69 NW14      29.79R WCI  24
$$

COZ006>008-011-260200-
...WEST CENTRAL VALLEYS...

CITY           SKY/WX    TMP DP  RH WIND       PRES   REMARKS
GRAND JUNCTION FAIR      47  34  60 SW3       29.77R
MONTROSE       FAIR      46  32  58 NW16G23   29.79R
EAGLE          MOCLDY    42  30  62 NE12      29.80R
RIFLE          CLOUDY    46  31  55 VRB7      29.79R
DELTA          FAIR      48  35  62 NE5       29.77S
NUCLA          DRIZZLE   43  30  61 N17G29    29.84R
$$

COZ017>023-064>068-260200-
...SOUTHWEST COLORADO...

CITY           SKY/WX    TMP DP  RH WIND       PRES   REMARKS
DURANGO        FAIR      44  24  45 W14       29.71R
CORTEZ         FAIR      47  30  51 N7        29.75R
PAGOSA SPRINGS CLOUDY    40  31  69 E6        29.71R
TELLURIDE      LGT SNOW  29  29  99 W7        29.82R VSB 3/4 WCI  22
WOLF CREEK PAS CLOUDY    21  18  86 NW7       29.82R WCI  13
$$

COZ009-010-012-014-032>034-037-058>063-260200-
...CENTRAL COLORADO...

CITY           SKY/WX    TMP DP  RH WIND       PRES   REMARKS
ASPEN          CLOUDY    33  28  81 SW7       29.77R WCI  27
BUENA VISTA    CLOUDY    38  20  47 NW21G29   29.71R
COPPER MTN     CLOUDY    25  19  80 MISG      29.79S HAZE
BERTHOUD PASS  CLOUDY    16   5  62 N26G37    29.77R WCI  -3
COTTONWOOD PAS CLOUDY    34  25  69 CALM      29.73R
GUNNISON       FAIR      35  29  78 W10       29.75R WCI  27
KREMMLING      MOCLDY    45  28  53 N9        29.77R
LEADVILLE      FAIR      29  19  66 N17G26    29.75R WCI  17
MONARCH PASS   LGT SNOW  21  19  93 NW13G20   29.87R WCI   9
SALIDA         CLOUDY    41  31  66 CALM      29.78R
SUNLIGHT       CLOUDY    23  21  93 MISG      29.86R
WILKERSON PASS SNOW      27  25  93 CALM      29.78R VSB<1/4
$$

COZ069>075-260200-
...SAN LUIS VALLEY/SANGRE DE CRISTO MOUNTAINS...

CITY           SKY/WX    TMP DP  RH WIND       PRES   REMARKS
ALAMOSA        MOCLDY    37  33  85 W3        29.66S
LA VETA PASS   SNOW      30  28  93 NW7       29.81R VSB 1/2 WCI  23
SAGUACHE       FAIR      39  25  56 NW25G31   29.68R
$$

COZ035-036-038>040-260200-
...NORTHERN COLORADO FRONT RANGE...

CITY           SKY/WX    TMP DP  RH WIND       PRES   REMARKS
DENVER INTL AP LGT RAIN  43  35  73 N23G30    29.69R
DMNS CITY PARK   N/A     40  37  89 NE9G25    29.71R
AURORA         LGT RAIN  45  35  68 N17G30    29.70R
FRONT RANGE AP RAIN      45  37  76 N14G35    29.70R
ERIE MUNI ARPT CLOUDY    46  34  64 N9G20     29.70R
BOULDER MUN AP LGT RAIN  43  37  81 E8        29.70R
CENTENNIAL     TSTM      43  36  76 W9        29.69R
BROOMFIELD     NOT AVBL
FORT COLLINS   FAIR      49  26  41 N25G35    29.68R
LONGMONT       CLOUDY    49  34  57 NE15G22   29.70R
$$

COZ041-046-047-076>085-087-088-260200-
...PIKES PEAK/PALMER DIVIDE AND SOUTHERN FOOTHILLS...

CITY           SKY/WX    TMP DP  RH WIND       PRES   REMARKS
COLO. SPRINGS  LGT RAIN  39  36  89 N17       29.71R FOG
A. F. ACADEMY  LGT SNOW  34  33  95 W5        29.70R FOG     WCI  30
SCHRIEVER AFB  RAIN      37  35  94 N14G21    29.70
ELLICOTT       NOT AVBL
FALCON         FLURRIES  34  33  98 CALM      29.70S
FORT CARSON    NOT AVBL
LIMON          CLOUDY    43  38  82 CALM      29.64R
MONUMENT HILL  CLOUDY    32  32 100 S5        29.70S WCI  27
TRINIDAD       LGT RAIN  41  37  86 NE8       29.64R
$$

COZ042>045-048>051-090-091-260200-
...NORTHEAST COLORADO...

CITY           SKY/WX    TMP DP  RH WIND       PRES   REMARKS
GREELEY ARPT   FAIR      43  35  73 NE21G28   29.71R
AKRON          CLOUDY    43  37  79 NE26G36   29.69R
BURLINGTON     NOT AVBL
WRAY           NOT AVBL
STERLING       CLOUDY    43  37  81 NE20G29   29.69R
HOLYOKE        CLOUDY    45  37  76 NE20      29.70R
FORT MORGAN    MOCLDY    46  36  66 N24G31    29.70R
$$

COZ086-089-092>099-260200-
...SOUTHEAST COLORADO...

CITY           SKY/WX    TMP DP  RH WIND       PRES   REMARKS
PUEBLO         LGT RAIN  43  39  86 NE20      29.68R FOG
LA JUNTA       RAIN      45  42  89 N26G35    29.65R FOG
LAMAR          LGT RAIN  47  43  86 N20G28    29.60R
SPRINGFIELD      N/A     47  44  90 NE13      29.58R
$$



USA.gov is the U.S. government's official web portal to all federal, state and local government web resources and services.